PulseSat

PulseSat

GSAT0217 (PRN E27)

Last updated on March 24, 2019, 3:12 a.m. UTC

1 43057U 17079C   19082.37961413 -.00000019  00000-0  00000+0 0  9997
2 43057  56.6275 294.1798 0001776 306.5794  53.4283  1.70473829  7932
UTC
Height (km)
Latitude
Longitude
Inclination
Orbital Period

Next 30 passes for location: Hong Kong

Rise time Rise Azimuth (degrees) Set time Set Azimuth (degrees) Duration Max altitude (degrees)

No matching passes for this satellites

PulseSat

PulseSat is the new satellites software and hardware trackering solution by Pulsely.
Satellite Two Line Element Set source: US Air Force Space Command

Download PulseSat for iOS
© 2017 Pulsely Limited